When you browse on this site, cookies collect data to enhance your experience and personalize the content and advertising you see.
Visit our Privacy Policy to learn more. By continuing to use the site, you agree to this use of cookies and data.
  • In Belgien
  • Länderverzeichnis
  • Für 7 Tage
  • Wassertemperatur
  • Satellitenkarten
  • Wetterkarte
  • Widgets
  • user-avatar
    Anmelden

    Stündliche Wetter Tusla

    Heute, 22 Februar, Freitag

    Zeit Temperatur Niederschläge Wind Luftdruck Luftfeuchtigkeit
    00:00 +6°C° 0 mm 1 m/S 727 mmHg 73%
    01:00 +6°C° 0 mm 1 m/S 727 mmHg 72%
    02:00 +6°C° 0.2 mm 1 m/S 726 mmHg 74%
    03:00 +6°C° 0.2 mm 1 m/S 726 mmHg 76%
    04:00 +6°C° 0.2 mm 1 m/S 725 mmHg 78%
    05:00 +6°C° 0.1 mm 1 m/S 725 mmHg 78%
    06:00 +6°C° 0.1 mm 1 m/S 725 mmHg 79%
    07:00 +6°C° 0 mm 1 m/S 724 mmHg 79%
    08:00 +6°C° 0.5 mm 1 m/S 724 mmHg 79%
    09:00 +7°C° 0.5 mm 1 m/S 724 mmHg 78%
    10:00 +8°C° 0.5 mm 1 m/S 724 mmHg 78%
    11:00 +7°C° 1 mm 1 m/S 724 mmHg 82%
    12:00 +6°C° 1 mm 2 m/S 724 mmHg 87%
    13:00 +6°C° 1 mm 2 m/S 724 mmHg 91%
    14:00 +6°C° 1.5 mm 2 m/S 724 mmHg 92%
    15:00 +5°C° 1.5 mm 3 m/S 724 mmHg 93%
    16:00 +5°C° 1.5 mm 3 m/S 724 mmHg 94%
    17:00 +4°C° 1.1 mm 4 m/S 724 mmHg 92%
    18:00 +2°C° 1.1 mm 5 m/S 725 mmHg 90%
    19:00 +1°C° 1.1 mm 6 m/S 726 mmHg 88%
    20:00 -2°C° 0.3 mm 6 m/S 726 mmHg 82%
    21:00 -3°C° 0.3 mm 6 m/S 727 mmHg 75%
    22:00 -5°C° 0.3 mm 5 m/S 728 mmHg 68%
    23:00 -6°C° 0 mm 5 m/S 729 mmHg 68%

    Morgen, 23 Februar, Samstag

    Zeit Temperatur Niederschläge Wind Luftdruck Luftfeuchtigkeit
    00:00 -7°C° 0 mm 5 m/S 730 mmHg 69%
    01:00 -10°C° 0 mm 5 m/S 730 mmHg 69%
    02:00 -10°C° 0 mm 6 m/S 730 mmHg 66%
    03:00 -10°C° 0 mm 6 m/S 730 mmHg 64%
    04:00 -11°C° 0 mm 7 m/S 730 mmHg 61%
    05:00 -11°C° 0 mm 7 m/S 730 mmHg 61%
    06:00 -11°C° 0 mm 7 m/S 731 mmHg 60%
    07:00 -11°C° 0 mm 7 m/S 731 mmHg 60%
    08:00 -11°C° 0 mm 7 m/S 731 mmHg 58%
    09:00 -9°C° 0 mm 7 m/S 731 mmHg 56%
    10:00 -8°C° 0 mm 6 m/S 732 mmHg 54%
    11:00 -8°C° 0 mm 6 m/S 732 mmHg 51%
    12:00 -6°C° 0 mm 6 m/S 732 mmHg 48%
    13:00 -5°C° 0 mm 6 m/S 732 mmHg 45%
    14:00 -5°C° 0 mm 6 m/S 732 mmHg 45%
    15:00 -5°C° 0 mm 6 m/S 732 mmHg 46%
    16:00 -5°C° 0 mm 5 m/S 733 mmHg 46%
    17:00 -6°C° 0 mm 5 m/S 733 mmHg 50%
    18:00 -5°C° 0 mm 4 m/S 733 mmHg 53%
    19:00 -6°C° 0 mm 3 m/S 733 mmHg 57%
    20:00 -6°C° 0 mm 3 m/S 734 mmHg 59%
    21:00 -5°C° 0 mm 2 m/S 734 mmHg 61%
    22:00 -5°C° 0 mm 2 m/S 734 mmHg 63%
    23:00 -6°C° 0 mm 2 m/S 734 mmHg 65%

    übermorgen, 24 Februar, Sonntag

    Zeit Temperatur Niederschläge Wind Luftdruck Luftfeuchtigkeit
    00:00 -4°C° 0 mm 1 m/S 734 mmHg 68%
    01:00 -4°C° 0 mm 1 m/S 734 mmHg 70%
    02:00 -4°C° 0 mm 1 m/S 734 mmHg 71%
    03:00 -6°C° 0 mm 1 m/S 734 mmHg 73%
    04:00 -6°C° 0 mm 1 m/S 734 mmHg 74%
    05:00 -6°C° 0 mm 1 m/S 734 mmHg 75%
    06:00 -6°C° 0 mm 1 m/S 734 mmHg 76%
    07:00 -6°C° 0 mm 1 m/S 734 mmHg 76%
    08:00 -4°C° 0 mm 1 m/S 735 mmHg 68%
    09:00 -4°C° 0 mm 2 m/S 735 mmHg 60%
    10:00 -3°C° 0 mm 2 m/S 735 mmHg 52%
    11:00 -2°C° 0 mm 2 m/S 735 mmHg 49%
    12:00 -1°C° 0 mm 2 m/S 735 mmHg 46%
    13:00 0°C° 0 mm 3 m/S 735 mmHg 42%
    14:00 0°C° 0 mm 3 m/S 734 mmHg 44%
    15:00 0°C° 0 mm 3 m/S 734 mmHg 47%
    16:00 0°C° 0 mm 3 m/S 734 mmHg 49%
    17:00 -2°C° 0 mm 2 m/S 734 mmHg 55%
    18:00 -3°C° 0 mm 2 m/S 734 mmHg 61%
    19:00 -2°C° 0 mm 1 m/S 735 mmHg 67%
    20:00 -2°C° 0 mm 1 m/S 735 mmHg 67%
    21:00 -2°C° 0 mm 1 m/S 735 mmHg 67%
    22:00 -3°C° 0 mm 0 m/S 735 mmHg 67%
    23:00 -3°C° 0 mm 0 m/S 735 mmHg 67%

    25 Februar, Montag

    Zeit Temperatur Niederschläge Wind Luftdruck Luftfeuchtigkeit
    00:00 -3°C° 0 mm 0 m/S 735 mmHg 66%
    01:00 -3°C° 0 mm 0 m/S 735 mmHg 65%
    02:00 -4°C° 0 mm 0 m/S 735 mmHg 65%
    03:00 -4°C° 0 mm 0 m/S 735 mmHg 65%
    04:00 -4°C° 0 mm 0 m/S 734 mmHg 65%
    05:00 -4°C° 0 mm 0 m/S 735 mmHg 65%
    06:00 -4°C° 0 mm 0 m/S 735 mmHg 65%
    07:00 -4°C° 0 mm 0 m/S 735 mmHg 65%
    08:00 -1°C° 0 mm 1 m/S 735 mmHg 58%
    09:00 +1°C° 0 mm 1 m/S 735 mmHg 50%
    10:00 +3°C° 0 mm 1 m/S 735 mmHg 43%
    11:00 +4°C° 0 mm 1 m/S 735 mmHg 42%
    12:00 +3°C° 0 mm 2 m/S 734 mmHg 41%
    13:00 +4°C° 0 mm 2 m/S 734 mmHg 40%
    14:00 +4°C° 0 mm 2 m/S 734 mmHg 43%
    15:00 +4°C° 0 mm 2 m/S 733 mmHg 46%
    16:00 +3°C° 0 mm 2 m/S 733 mmHg 49%
    17:00 +3°C° 0 mm 1 m/S 733 mmHg 54%
    18:00 +1°C° 0 mm 1 m/S 733 mmHg 59%
    19:00 -1°C° 0 mm 0 m/S 733 mmHg 64%
    20:00 -1°C° 0 mm 0 m/S 733 mmHg 63%
    21:00 -1°C° 0 mm 0 m/S 733 mmHg 63%
    22:00 -1°C° 0 mm 0 m/S 733 mmHg 62%
    23:00 -1°C° 0 mm 0 m/S 733 mmHg 62%

    26 Februar, Dienstag

    Zeit Temperatur Niederschläge Wind Luftdruck Luftfeuchtigkeit
    00:00 -1°C° 0 mm 0 m/S 733 mmHg 63%
    01:00 -1°C° 0 mm 0 m/S 732 mmHg 63%
    02:00 0°C° 0 mm 1 m/S 732 mmHg 64%
    03:00 0°C° 0 mm 1 m/S 732 mmHg 65%
    04:00 0°C° 0 mm 1 m/S 732 mmHg 66%
    05:00 0°C° 0 mm 1 m/S 732 mmHg 66%
    06:00 0°C° 0 mm 1 m/S 732 mmHg 66%
    07:00 0°C° 0 mm 1 m/S 732 mmHg 66%
    08:00 +2°C° 0 mm 1 m/S 732 mmHg 61%
    09:00 +5°C° 0 mm 1 m/S 732 mmHg 56%
    10:00 +7°C° 0 mm 1 m/S 732 mmHg 51%
    11:00 +8°C° 0 mm 1 m/S 731 mmHg 49%
    12:00 +8°C° 0 mm 2 m/S 731 mmHg 47%
    13:00 +9°C° 0 mm 2 m/S 730 mmHg 44%
    14:00 +9°C° 0 mm 2 m/S 730 mmHg 49%
    15:00 +8°C° 0 mm 2 m/S 729 mmHg 54%
    16:00 +9°C° 0 mm 1 m/S 728 mmHg 59%
    17:00 +7°C° 0 mm 1 m/S 728 mmHg 66%
    18:00 +6°C° 0 mm 1 m/S 728 mmHg 73%
    19:00 +4°C° 0 mm 1 m/S 728 mmHg 79%
    20:00 +4°C° 0 mm 1 m/S 728 mmHg 80%
    21:00 +4°C° 0 mm 1 m/S 727 mmHg 81%
    22:00 +4°C° 0 mm 1 m/S 727 mmHg 81%
    23:00 +4°C° 0.1 mm 1 m/S 727 mmHg 83%

    27 Februar, Mittwoch

    Zeit Temperatur Niederschläge Wind Luftdruck Luftfeuchtigkeit
    00:00 +4°C° 0.1 mm 1 m/S 727 mmHg 84%
    01:00 +4°C° 0.1 mm 1 m/S 727 mmHg 86%
    02:00 +4°C° 0 mm 1 m/S 727 mmHg 88%
    03:00 +4°C° 0 mm 1 m/S 726 mmHg 91%
    04:00 +3°C° 0 mm 1 m/S 726 mmHg 94%
    05:00 +3°C° 0 mm 1 m/S 726 mmHg 94%
    06:00 +3°C° 0 mm 1 m/S 726 mmHg 94%
    07:00 +3°C° 0 mm 1 m/S 726 mmHg 95%
    08:00 +3°C° 0 mm 2 m/S 727 mmHg 87%
    09:00 +4°C° 0 mm 2 m/S 727 mmHg 79%
    10:00 +4°C° 0 mm 3 m/S 727 mmHg 72%
    11:00 +5°C° 0 mm 3 m/S 727 mmHg 64%
    12:00 +7°C° 0 mm 3 m/S 727 mmHg 57%
    13:00 +7°C° 0 mm 4 m/S 726 mmHg 50%
    14:00 +7°C° 0 mm 4 m/S 726 mmHg 50%
    15:00 +8°C° 0 mm 3 m/S 726 mmHg 50%
    16:00 +8°C° 0 mm 3 m/S 726 mmHg 50%
    17:00 +5°C° 0 mm 3 m/S 726 mmHg 54%
    18:00 +5°C° 0 mm 2 m/S 726 mmHg 59%
    19:00 +4°C° 0 mm 1 m/S 726 mmHg 64%
    20:00 +4°C° 0 mm 1 m/S 726 mmHg 65%
    21:00 +3°C° 0 mm 1 m/S 726 mmHg 66%
    22:00 +2°C° 0 mm 0 m/S 726 mmHg 67%
    23:00 +3°C° 0 mm 1 m/S 726 mmHg 67%
    Mehr zeigen